Weather in Kamynino

Russia / Tula Oblast     53°40′19″N   37°19′06″E
temp.,
°C
wind,
m/s
gust,
m/s
humid.,
%
clouds,
%
prec.,
mm/h
press.,
hPa
HPBL,
m
26 july, mon
mon2600:00+18ssw1157100 0.0 102211
03:00+18s1156100 0.0 102311
06:00+18se1158100 0.0 102313
09:00+19ssw125998 0.0 1024155
12:00+21s235898 0.0 1024301
15:00+26sse134462 0.0 10222029
18:00+22wnw3458100 0.0 1022138
21:00+19ese12723 0.1 102216
27 july, tue
tue2700:00+17s227874 0.2 102315
03:00+16wsw128971 1.1 102311
06:00+17wsw22865 0.1 102338
09:00+22w23664 0.1 1023391
12:00+26w34485 0.0 10221523
15:00+27wnw444377 0.0 10202108
18:00+25w24538 0.0 1019361
21:00+18e569079 2.5 1020107
28 july, wed
wed2800:00+17s338637 2.3 102031
03:00+16s34866 2.4 101954
06:00+17s36835 0.0 1018100
09:00+24s47576 0.0 1017389
12:00+27s5744100 0.0 10151307
15:00+24wsw91254100 0.0 1014714
18:00+18ssw41188100 0.8 1013352
21:00+19ssw41288100 1.4 1012491
29 july, thu
thu2900:00+17sw4109830 0.0 1011269
03:00+17wsw499818 0.0 1011205
06:00+17wsw39954 0.0 1010210
09:00+22w57775 0.0 1010423
12:00+27w56506 0.0 10101647
15:00+25w375693 0.0 1009259
18:00+27wnw355296 0.0 1008707
21:00+22sw22697 0.0 100811
30 july, fri
fri3000:00+20ssw3478100 0.0 100862
03:00+18w41096100 2.2 1008301
06:00+18wsw369738 2.0 1008282
09:00+21nw568149 2.0 1008658
12:00+24nw456763 0.1 10091097
15:00+27wnw56440 0.2 10092088
18:00+25wnw56501 0.0 1009725
21:00+20w226317 0.0 101020